Location: Mascot Post Office (historical)
(40.2645°N, 99.5462°W)
Time: 10:36:08
(UTC+00:00)

NOSS 3-4 (C) - Pass Details

Date: 24 October 2020
Orbit: 886 x 1326 km, 63.4° (Epoch: 06 November)

Event Time Altitude Azimuth Distance (km) Brightness Sun altitude
Rises 01:51:24 0° 331° (NNW) 3,777 7.0 -24.6°
Reaches altitude 10° 01:54:38 10° 346° (NNW) 2,898 6.2 -25.2°
Enters shadow 01:59:27 22° 31° (NNE) 2,235 5.1 -26.1°
